Time,TemperatureF,DewpointF,PressureIn,WindDirection,WindDirectionDegrees,WindSpeedMPH,WindSpeedGustMPH,Humidity,HourlyPrecipIn,Conditions,Clouds,dailyrainin,SoftwareType,DateUTC
2013-10-17 00:01:00,52.1,46.0,29.91,WSW,251,5.0,-999.0,81,-99.99,,,0.00,weatherlink.com 1.10,2013-10-17 04:01:00,
2013-10-17 00:16:00,52.1,46.0,29.91,WSW,240,8.0,-999.0,80,-99.99,,,0.00,weatherlink.com 1.10,2013-10-17 04:16:00,
2013-10-17 00:31:00,52.1,46.0,29.90,SW,220,8.0,-999.0,80,-99.99,,,0.00,weatherlink.com 1.10,2013-10-17 04:31:00,
2013-10-17 00:46:00,52.1,46.0,29.90,SW,227,8.0,-999.0,79,-99.99,,,0.00,weatherlink.com 1.10,2013-10-17 04:46:00,
2013-10-17 01:01:00,52.1,46.0,29.90,SW,226,7.0,-999.0,79,-99.99,,,0.00,weatherlink.com 1.10,2013-10-17 05:01:00,
2013-10-17 01:16:00,52.1,45.0,29.89,WSW,242,9.0,-999.0,78,-99.99,,,0.00,weatherlink.com 1.10,2013-10-17 05:16:00,
2013-10-17 01:31:00,52.1,45.0,29.89,WSW,249,11.0,-999.0,78,-99.99,,,0.00,weatherlink.com 1.10,2013-10-17 05:31:00,
2013-10-17 01:46:00,52.2,45.0,29.89,SW,233,7.0,-999.0,77,-99.99,,,0.00,weatherlink.com 1.10,2013-10-17 05:46:00,
2013-10-17 02:01:00,52.2,45.0,29.88,SW,235,6.0,-999.0,77,-99.99,,,0.00,weatherlink.com 1.10,2013-10-17 06:01:00,
2013-10-17 02:16:00,52.2,45.0,29.88,SW,227,9.0,-999.0,77,-99.99,,,0.00,weatherlink.com 1.10,2013-10-17 06:16:00,
2013-10-17 02:31:00,52.3,45.0,29.87,SW,234,6.0,-999.0,77,-99.99,,,0.00,weatherlink.com 1.10,2013-10-17 06:31:00,
2013-10-17 02:46:00,52.2,45.0,29.87,WSW,242,7.0,-999.0,77,-99.99,,,0.00,weatherlink.com 1.10,2013-10-17 06:46:00,
2013-10-17 03:01:00,52.3,45.0,29.87,WSW,257,8.0,-999.0,76,-99.99,,,0.00,weatherlink.com 1.10,2013-10-17 07:01:00,
2013-10-17 03:16:00,52.2,45.0,29.86,WSW,252,9.0,-999.0,76,-99.99,,,0.00,weatherlink.com 1.10,2013-10-17 07:16:00,
2013-10-17 03:31:00,52.2,45.0,29.86,SW,232,9.0,-999.0,76,-99.99,,,0.00,weatherlink.com 1.10,2013-10-17 07:31:00,
2013-10-17 03:46:00,52.2,45.0,29.86,SW,225,11.0,-999.0,76,-99.99,,,0.00,weatherlink.com 1.10,2013-10-17 07:46:00,
2013-10-17 04:01:00,52.1,45.0,29.85,WSW,249,7.0,-999.0,76,-99.99,,,0.00,weatherlink.com 1.10,2013-10-17 08:01:00,
2013-10-17 04:16:00,52.1,45.0,29.85,SW,229,10.0,-999.0,76,-99.99,,,0.00,weatherlink.com 1.10,2013-10-17 08:16:00,
2013-10-17 04:31:00,52.1,45.0,29.85,SW,220,13.0,-999.0,76,-99.99,,,0.00,weatherlink.com 1.10,2013-10-17 08:31:00,
2013-10-17 04:46:00,52.1,45.0,29.85,WSW,244,10.0,-999.0,76,-99.99,,,0.00,weatherlink.com 1.10,2013-10-17 08:46:00,
2013-10-17 05:01:00,52.2,45.0,29.84,WSW,242,7.0,-999.0,75,-99.99,,,0.00,weatherlink.com 1.10,2013-10-17 09:01:00,
2013-10-17 05:16:00,52.2,45.0,29.85,SW,229,7.0,-999.0,75,-99.99,,,0.00,weatherlink.com 1.10,2013-10-17 09:16:00,
2013-10-17 05:31:00,52.2,45.0,29.85,WSW,251,7.0,-999.0,75,-99.99,,,0.00,weatherlink.com 1.10,2013-10-17 09:31:00,
2013-10-17 05:46:00,52.2,45.0,29.85,SW,234,6.0,-999.0,75,-99.99,,,0.00,weatherlink.com 1.10,2013-10-17 09:46:00,
2013-10-17 06:01:00,52.3,45.0,29.85,SW,227,7.0,-999.0,75,-99.99,,,0.00,weatherlink.com 1.10,2013-10-17 10:01:00,
2013-10-17 06:16:00,52.3,45.0,29.85,West,266,6.0,-999.0,75,-99.99,,,0.00,weatherlink.com 1.10,2013-10-17 10:16:00,
2013-10-17 06:31:00,52.4,45.0,29.84,SW,225,7.0,-999.0,75,-99.99,,,0.00,weatherlink.com 1.10,2013-10-17 10:31:00,
2013-10-17 06:46:00,52.5,45.0,29.84,SW,227,6.0,-999.0,75,-99.99,,,0.00,weatherlink.com 1.10,2013-10-17 10:46:00,
2013-10-17 07:01:00,52.5,45.0,29.84,SW,228,6.0,-999.0,75,-99.99,,,0.00,weatherlink.com 1.10,2013-10-17 11:01:00,
2013-10-17 07:16:00,52.5,45.0,29.85,WSW,248,6.0,-999.0,75,-99.99,,,0.00,weatherlink.com 1.10,2013-10-17 11:16:00,
2013-10-17 07:31:00,52.5,45.0,29.84,SW,219,5.0,-999.0,75,-99.99,,,0.00,weatherlink.com 1.10,2013-10-17 11:31:00,
2013-10-17 07:46:00,52.6,45.0,29.84,SW,225,5.0,-999.0,75,-99.99,,,0.00,weatherlink.com 1.10,2013-10-17 11:46:00,
2013-10-17 08:01:00,52.6,45.0,29.84,WSW,248,4.0,-999.0,75,-99.99,,,0.00,weatherlink.com 1.10,2013-10-17 12:01:00,
2013-10-17 08:17:00,52.3,45.0,29.84,SW,232,5.0,-999.0,75,-99.99,,,0.00,weatherlink.com 1.10,2013-10-17 12:17:00,
2013-10-17 08:32:00,52.6,45.0,29.86,SW,221,5.0,-999.0,75,-99.99,,,0.00,weatherlink.com 1.10,2013-10-17 12:32:00,
2013-10-17 08:47:00,52.6,45.0,29.86,SW,234,6.0,-999.0,75,-99.99,,,0.00,weatherlink.com 1.10,2013-10-17 12:47:00,
2013-10-17 09:02:00,52.8,45.0,29.85,South,191,2.0,-999.0,75,-99.99,,,0.00,weatherlink.com 1.10,2013-10-17 13:02:00,
2013-10-17 09:17:00,53.1,45.0,29.86,SW,218,8.0,-999.0,75,-99.99,,,0.00,weatherlink.com 1.10,2013-10-17 13:17:00,
2013-10-17 09:32:00,52.9,45.0,29.85,South,190,4.0,-999.0,75,-99.99,,,0.00,weatherlink.com 1.10,2013-10-17 13:32:00,
2013-10-17 09:47:00,53.0,45.0,29.84,East,90,0.0,-999.0,75,-99.99,,,0.00,weatherlink.com 1.10,2013-10-17 13:47:00,
2013-10-17 10:02:00,53.5,46.0,29.84,SSW,206,4.0,-999.0,75,-99.99,,,0.00,weatherlink.com 1.10,2013-10-17 14:02:00,
2013-10-17 10:17:00,53.5,46.0,29.85,SW,216,2.0,-999.0,75,-99.99,,,0.00,weatherlink.com 1.10,2013-10-17 14:17:00,
2013-10-17 10:32:00,53.1,45.0,29.84,South,177,1.0,-999.0,75,-99.99,,,0.00,weatherlink.com 1.10,2013-10-17 14:32:00,
2013-10-17 10:47:00,53.5,46.0,29.84,SSE,147,7.0,-999.0,76,-99.99,,,0.00,weatherlink.com 1.10,2013-10-17 14:47:00,
2013-10-17 11:02:00,54.4,47.0,29.84,SSE,153,2.0,-999.0,76,-99.99,,,0.00,weatherlink.com 1.10,2013-10-17 15:02:00,
2013-10-17 11:17:00,54.6,47.0,29.84,SE,145,4.0,-999.0,75,-99.99,,,0.00,weatherlink.com 1.10,2013-10-17 15:17:00,
2013-10-17 11:32:00,53.8,46.0,29.83,SSE,161,8.0,-999.0,75,-99.99,,,0.00,weatherlink.com 1.10,2013-10-17 15:32:00,
2013-10-17 11:47:00,53.7,46.0,29.82,South,190,7.0,-999.0,75,-99.99,,,0.00,weatherlink.com 1.10,2013-10-17 15:47:00,
2013-10-17 12:02:00,53.5,46.0,29.83,South,169,4.0,-999.0,75,-99.99,,,0.00,weatherlink.com 1.10,2013-10-17 16:02:00,
2013-10-17 12:17:00,53.2,45.0,29.82,SSW,205,10.0,-999.0,75,-99.99,,,0.02,weatherlink.com 1.10,2013-10-17 16:17:00,
2013-10-17 12:32:00,53.7,46.0,29.81,SSE,162,6.0,-999.0,75,-99.99,,,0.02,weatherlink.com 1.10,2013-10-17 16:32:00,
2013-10-17 12:47:00,53.5,46.0,29.80,SSW,205,8.0,-999.0,75,-99.99,,,0.04,weatherlink.com 1.10,2013-10-17 16:47:00,
2013-10-17 13:02:00,53.6,46.0,29.79,SSW,200,10.0,-999.0,75,-99.99,,,0.04,weatherlink.com 1.10,2013-10-17 17:02:00,
2013-10-17 13:17:00,53.1,45.0,29.79,South,189,7.0,-999.0,75,-99.99,,,0.05,weatherlink.com 1.10,2013-10-17 17:17:00,
2013-10-17 13:32:00,53.5,46.0,29.78,SW,233,4.0,-999.0,75,-99.99,,,0.07,weatherlink.com 1.10,2013-10-17 17:32:00,
2013-10-17 13:47:00,53.7,46.0,29.77,South,180,5.0,-999.0,75,-99.99,,,0.07,weatherlink.com 1.10,2013-10-17 17:47:00,
2013-10-17 14:02:00,53.6,46.0,29.75,SSW,212,2.0,-999.0,75,-99.99,,,0.07,weatherlink.com 1.10,2013-10-17 18:02:00,
2013-10-17 14:17:00,54.2,46.0,29.75,South,188,8.0,-999.0,75,-99.99,,,0.07,weatherlink.com 1.10,2013-10-17 18:17:00,
2013-10-17 14:32:00,54.1,46.0,29.75,SSW,196,10.0,-999.0,75,-99.99,,,0.07,weatherlink.com 1.10,2013-10-17 18:32:00,
2013-10-17 14:47:00,54.1,46.0,29.75,SSW,212,6.0,-999.0,75,-99.99,,,0.07,weatherlink.com 1.10,2013-10-17 18:47:00,
2013-10-17 15:02:00,54.1,46.0,29.75,SSW,213,7.0,-999.0,75,-99.99,,,0.07,weatherlink.com 1.10,2013-10-17 19:02:00,
2013-10-17 15:17:00,54.1,46.0,29.74,SSW,201,5.0,-999.0,75,-99.99,,,0.07,weatherlink.com 1.10,2013-10-17 19:17:00,
2013-10-17 15:32:00,54.2,46.0,29.74,SSW,200,10.0,-999.0,75,-99.99,,,0.07,weatherlink.com 1.10,2013-10-17 19:32:00,
2013-10-17 15:47:00,54.1,46.0,29.74,South,171,5.0,-999.0,75,-99.99,,,0.07,weatherlink.com 1.10,2013-10-17 19:47:00,
2013-10-17 16:02:00,54.2,46.0,29.73,SW,219,7.0,-999.0,75,-99.99,,,0.07,weatherlink.com 1.10,2013-10-17 20:02:00,
2013-10-17 16:17:00,54.3,47.0,29.73,SSW,199,6.0,-999.0,75,-99.99,,,0.07,weatherlink.com 1.10,2013-10-17 20:17:00,
2013-10-17 16:32:00,54.3,47.0,29.73,SW,215,13.0,-999.0,75,-99.99,,,0.07,weatherlink.com 1.10,2013-10-17 20:32:00,
2013-10-17 16:47:00,54.4,47.0,29.72,SW,217,10.0,-999.0,75,-99.99,,,0.07,weatherlink.com 1.10,2013-10-17 20:47:00,
2013-10-17 17:02:00,54.4,47.0,29.72,SW,222,9.0,-999.0,75,-99.99,,,0.08,weatherlink.com 1.10,2013-10-17 21:02:00,
2013-10-17 17:17:00,54.6,47.0,29.72,SW,236,7.0,-999.0,75,-99.99,,,0.08,weatherlink.com 1.10,2013-10-17 21:17:00,
2013-10-17 17:32:00,54.5,47.0,29.72,SSW,213,7.0,-999.0,76,-99.99,,,0.08,weatherlink.com 1.10,2013-10-17 21:32:00,
2013-10-17 17:47:00,54.6,47.0,29.71,SSW,212,11.0,-999.0,76,-99.99,,,0.09,weatherlink.com 1.10,2013-10-17 21:47:00,
2013-10-17 18:02:00,51.7,44.0,29.73,WSW,248,8.0,-999.0,75,-99.99,,,0.18,weatherlink.com 1.10,2013-10-17 22:02:00,
2013-10-17 18:17:00,49.6,42.0,29.74,SW,232,14.0,-999.0,76,-99.99,,,0.18,weatherlink.com 1.10,2013-10-17 22:17:00,
2013-10-17 18:32:00,48.7,41.0,29.74,SW,217,12.0,-999.0,76,-99.99,,,0.18,weatherlink.com 1.10,2013-10-17 22:32:00,
2013-10-17 18:47:00,48.2,41.0,29.75,WNW,284,7.0,-999.0,76,-99.99,,,0.18,weatherlink.com 1.10,2013-10-17 22:47:00,
2013-10-17 19:03:00,46.7,40.0,29.75,WSW,253,13.0,-999.0,77,-99.99,,,0.18,weatherlink.com 1.10,2013-10-17 23:03:00,
2013-10-17 19:18:00,45.9,39.0,29.75,WSW,243,19.0,-999.0,77,-99.99,,,0.18,weatherlink.com 1.10,2013-10-17 23:18:00,
2013-10-17 19:33:00,45.4,39.0,29.76,WSW,245,13.0,-999.0,77,-99.99,,,0.18,weatherlink.com 1.10,2013-10-17 23:33:00,
2013-10-17 19:48:00,45.0,38.0,29.77,SW,227,12.0,-999.0,77,-99.99,,,0.18,weatherlink.com 1.10,2013-10-17 23:48:00,
2013-10-17 20:03:00,44.7,38.0,29.78,WSW,254,21.0,-999.0,77,-99.99,,,0.18,weatherlink.com 1.10,2013-10-18 00:03:00,
2013-10-17 20:18:00,44.3,38.0,29.78,WSW,256,14.0,-999.0,77,-99.99,,,0.19,weatherlink.com 1.10,2013-10-18 00:18:00,
2013-10-17 20:33:00,44.0,37.0,29.79,WNW,296,10.0,-999.0,77,-99.99,,,0.19,weatherlink.com 1.10,2013-10-18 00:33:00,
2013-10-17 20:48:00,43.5,37.0,29.79,SW,234,14.0,-999.0,78,-99.99,,,0.19,weatherlink.com 1.10,2013-10-18 00:48:00,
2013-10-17 21:03:00,43.2,37.0,29.79,SW,235,15.0,-999.0,78,-99.99,,,0.19,weatherlink.com 1.10,2013-10-18 01:03:00,
2013-10-17 21:18:00,42.6,36.0,29.80,West,261,15.0,-999.0,78,-99.99,,,0.19,weatherlink.com 1.10,2013-10-18 01:18:00,
2013-10-17 21:33:00,41.9,36.0,29.80,SW,223,13.0,-999.0,78,-99.99,,,0.19,weatherlink.com 1.10,2013-10-18 01:33:00,
2013-10-17 21:48:00,41.5,35.0,29.81,SW,236,8.0,-999.0,78,-99.99,,,0.19,weatherlink.com 1.10,2013-10-18 01:48:00,
2013-10-17 22:03:00,40.9,35.0,29.81,SW,236,20.0,-999.0,79,-99.99,,,0.19,weatherlink.com 1.10,2013-10-18 02:03:00,
2013-10-17 22:18:00,40.0,34.0,29.81,WSW,254,20.0,-999.0,79,-99.99,,,0.20,weatherlink.com 1.10,2013-10-18 02:18:00,
2013-10-17 22:33:00,39.6,34.0,29.82,West,265,16.0,-999.0,79,-99.99,,,0.20,weatherlink.com 1.10,2013-10-18 02:33:00,
2013-10-17 22:48:00,39.3,33.0,29.81,WSW,246,21.0,-999.0,79,-99.99,,,0.20,weatherlink.com 1.10,2013-10-18 02:48:00,
2013-10-17 23:03:00,38.9,33.0,29.81,West,265,13.0,-999.0,79,-99.99,,,0.20,weatherlink.com 1.10,2013-10-18 03:03:00,
2013-10-17 23:18:00,38.9,33.0,29.81,West,267,16.0,-999.0,79,-99.99,,,0.20,weatherlink.com 1.10,2013-10-18 03:18:00,
2013-10-17 23:33:00,38.7,33.0,29.82,WSW,251,10.0,-999.0,79,-99.99,,,0.20,weatherlink.com 1.10,2013-10-18 03:33:00,
2013-10-17 23:48:00,38.5,33.0,29.82,WSW,245,10.0,-999.0,79,-99.99,,,0.20,weatherlink.com 1.10,2013-10-18 03:48:00,